| Back to River Map | <<< Previous Forecast Point | | | Next Forecast Point >>> | Printer Version | Graph Version |  |
|
CHEROKEE CANAL - RICHVALE (RCVC1)
| Latitude: 39.47º N | Longitude: 121.74º W | Elevation: 106 Feet | | Forecast Type: Unofficial Location |
| Location: Butte County in California | Bulletin Group: Lower Sacramento | River Group: Lower Sacramento |
| Issuance Time: | May 10 2026 at 7:31 AM PDT | Next Issuance: | May 11 2026 at 9:00 AM PDT
| |
| Action/Monitor: 99.3 Feet | Minor Flood: 103.6 Feet | Moderate Flood: N/A | Major Flood: N/A |
# Tabular Observed and Forecast Hydrograph Information
#
# Location: Cherokee Canal - Richvale (RCVC1)
#
# File Generation Time: 05/10/2026 at 07:32 AM PDT
# Data Interval: 1 Hour
#
# Most Recent Date & Time of Maximum Observed: 05/06/2026 at 09:00 AM PDT
# Maximum Observed Stage: 95.21 Feet
# Maximum Observed Flow: 20 cfs
#
# Earliest Date & Time of Maximum Forecast: 05/10/2026 at 08:00 AM PDT
# Maximum Forecast Stage: 94.96 Feet
# Maximum Forecast Flow: 9 cfs
#
# OBSERVED
#
# Date & Time (Local) Stage (Feet) Flow (cfs) Trend Observed Status
# ---------------------------------------------------------------------------------
05/05/2026 07 AM PDT 95.18 18 Normal
05/05/2026 08 AM PDT 95.19 19 + Normal
05/05/2026 09 AM PDT 95.19 19 0 Normal
05/05/2026 10 AM PDT 95.19 19 0 Normal
05/05/2026 11 AM PDT 95.20 19 + Normal
05/05/2026 12 PM PDT 95.20 19 0 Normal
05/05/2026 01 PM PDT 95.20 19 0 Normal
05/05/2026 02 PM PDT 95.20 19 0 Normal
05/05/2026 03 PM PDT 95.20 19 0 Normal
05/05/2026 04 PM PDT 95.20 19 0 Normal
05/05/2026 05 PM PDT 95.20 19 0 Normal
05/05/2026 06 PM PDT 95.20 19 0 Normal
05/05/2026 07 PM PDT 95.20 19 0 Normal
05/05/2026 08 PM PDT 95.20 19 0 Normal
05/05/2026 09 PM PDT 95.20 19 0 Normal
05/05/2026 10 PM PDT 95.20 19 0 Normal
05/05/2026 11 PM PDT 95.20 19 0 Normal
05/06/2026 12 AM PDT 95.20 19 0 Normal
05/06/2026 01 AM PDT 95.20 19 0 Normal
05/06/2026 02 AM PDT 95.20 19 0 Normal
05/06/2026 03 AM PDT 95.20 19 0 Normal
05/06/2026 04 AM PDT 95.20 19 0 Normal
05/06/2026 05 AM PDT 95.20 19 0 Normal
05/06/2026 06 AM PDT 95.21 20 + Normal
05/06/2026 07 AM PDT 95.21 20 0 Normal
05/06/2026 08 AM PDT 95.21 20 0 Normal
05/06/2026 09 AM PDT 95.21 20 0 Normal
05/06/2026 10 AM PDT 95.20 19 - Normal
05/06/2026 11 AM PDT 95.20 19 0 Normal
05/06/2026 12 PM PDT 95.20 19 0 Normal
05/06/2026 01 PM PDT 95.19 19 - Normal
05/06/2026 02 PM PDT 95.19 19 0 Normal
05/06/2026 03 PM PDT 95.18 18 - Normal
05/06/2026 04 PM PDT 95.18 18 0 Normal
05/06/2026 05 PM PDT 95.18 18 0 Normal
05/06/2026 06 PM PDT 95.17 18 - Normal
05/06/2026 07 PM PDT 95.17 18 0 Normal
05/06/2026 08 PM PDT 95.17 18 0 Normal
05/06/2026 09 PM PDT 95.17 18 0 Normal
05/06/2026 10 PM PDT 95.17 18 0 Normal
05/06/2026 11 PM PDT 95.17 18 0 Normal
05/07/2026 12 AM PDT 95.17 18 0 Normal
05/07/2026 01 AM PDT 95.17 18 0 Normal
05/07/2026 02 AM PDT 95.17 18 0 Normal
05/07/2026 03 AM PDT 95.18 18 + Normal
05/07/2026 04 AM PDT 95.18 18 0 Normal
05/07/2026 05 AM PDT 95.18 18 0 Normal
05/07/2026 06 AM PDT 95.18 18 0 Normal
05/07/2026 07 AM PDT 95.19 19 + Normal
05/07/2026 08 AM PDT 95.19 19 0 Normal
05/07/2026 09 AM PDT 95.19 19 0 Normal
05/07/2026 10 AM PDT 95.19 19 0 Normal
05/07/2026 11 AM PDT 95.19 19 0 Normal
05/07/2026 12 PM PDT 95.18 18 - Normal
05/07/2026 01 PM PDT 95.07 13 - Normal
05/07/2026 02 PM PDT 94.89 7 - Normal
05/07/2026 03 PM PDT 94.70 2 - Normal
05/07/2026 04 PM PDT 94.60 0 - Normal
05/07/2026 05 PM PDT 94.60 0 0 Normal
05/07/2026 06 PM PDT 94.60 0 0 Normal
05/07/2026 07 PM PDT 94.60 0 0 Normal
05/07/2026 08 PM PDT 94.60 0 0 Normal
05/07/2026 09 PM PDT 94.60 0 0 Normal
05/07/2026 10 PM PDT 94.60 0 0 Normal
05/07/2026 11 PM PDT 94.60 0 0 Normal
05/08/2026 12 AM PDT 94.60 0 0 Normal
05/08/2026 01 AM PDT 94.60 0 0 Normal
05/08/2026 02 AM PDT 94.60 0 0 Normal
05/08/2026 03 AM PDT 94.60 0 0 Normal
05/08/2026 04 AM PDT 94.60 0 0 Normal
05/08/2026 05 AM PDT 94.60 0 0 Normal
05/08/2026 06 AM PDT 94.60 0 0 Normal
05/08/2026 07 AM PDT 94.60 0 0 Normal
05/08/2026 08 AM PDT 94.60 0 0 Normal
05/08/2026 09 AM PDT 94.60 0 0 Normal
05/08/2026 10 AM PDT 94.60 0 0 Normal
05/08/2026 11 AM PDT 94.60 0 0 Normal
05/08/2026 12 PM PDT 94.60 0 0 Normal
05/08/2026 01 PM PDT 94.60 0 0 Normal
05/08/2026 02 PM PDT 94.60 0 0 Normal
05/08/2026 03 PM PDT 94.60 0 0 Normal
05/08/2026 04 PM PDT 94.60 0 0 Normal
05/08/2026 05 PM PDT 94.60 0 0 Normal
05/08/2026 06 PM PDT 94.60 0 0 Normal
05/08/2026 07 PM PDT 94.60 0 0 Normal
05/08/2026 08 PM PDT 94.60 0 0 Normal
05/08/2026 09 PM PDT 94.60 0 0 Normal
05/08/2026 10 PM PDT 94.60 0 0 Normal
05/08/2026 11 PM PDT 94.60 0 0 Normal
05/09/2026 12 AM PDT 94.60 0 0 Normal
05/09/2026 01 AM PDT 94.63 0 + Normal
05/09/2026 02 AM PDT 94.65 0 + Normal
05/09/2026 03 AM PDT 94.67 0 + Normal
05/09/2026 04 AM PDT 94.68 1 + Normal
05/09/2026 05 AM PDT 94.70 2 + Normal
05/09/2026 06 AM PDT 94.71 2 + Normal
05/09/2026 07 AM PDT 94.72 2 + Normal
05/09/2026 08 AM PDT 94.73 2 + Normal
05/09/2026 09 AM PDT 94.73 2 0 Normal
05/09/2026 10 AM PDT 94.72 2 - Normal
05/09/2026 11 AM PDT 94.72 2 0 Normal
05/09/2026 12 PM PDT 94.71 2 - Normal
05/09/2026 01 PM PDT 94.70 2 - Normal
05/09/2026 02 PM PDT 94.69 1 - Normal
05/09/2026 03 PM PDT 94.68 1 - Normal
05/09/2026 04 PM PDT 94.67 0 - Normal
05/09/2026 05 PM PDT 94.67 0 0 Normal
05/09/2026 06 PM PDT 94.67 0 0 Normal
05/09/2026 07 PM PDT 94.69 1 + Normal
05/09/2026 08 PM PDT 94.73 2 + Normal
05/09/2026 09 PM PDT 94.78 3 + Normal
05/09/2026 10 PM PDT 94.81 4 + Normal
05/09/2026 11 PM PDT 94.83 5 + Normal
05/10/2026 12 AM PDT 94.84 5 + Normal
05/10/2026 01 AM PDT 94.86 6 + Normal
05/10/2026 02 AM PDT 94.89 7 + Normal
05/10/2026 03 AM PDT 94.91 7 + Normal
05/10/2026 04 AM PDT 94.93 8 + Normal
05/10/2026 05 AM PDT 94.96 9 + Normal
05/10/2026 06 AM PDT 94.96 9 0 Normal
05/10/2026 07 AM PDT 94.96 9 0 Normal
#
# FORECAST
#
# Date & Time (Local) Stage (Feet) Flow (cfs) Trend Forecast Status
# ---------------------------------------------------------------------------------
05/10/2026 08 AM PDT 94.96 9 Normal
05/10/2026 09 AM PDT 94.96 9 0 Normal
05/10/2026 10 AM PDT 94.96 9 0 Normal
05/10/2026 11 AM PDT 94.96 9 0 Normal
05/10/2026 12 PM PDT 94.96 9 0 Normal
05/10/2026 01 PM PDT 94.96 9 0 Normal
05/10/2026 02 PM PDT 94.96 9 0 Normal
05/10/2026 03 PM PDT 94.96 9 0 Normal
05/10/2026 04 PM PDT 94.96 9 0 Normal
05/10/2026 05 PM PDT 94.96 9 0 Normal
05/10/2026 06 PM PDT 94.96 9 0 Normal
05/10/2026 07 PM PDT 94.96 9 0 Normal
05/10/2026 08 PM PDT 94.96 9 0 Normal
05/10/2026 09 PM PDT 94.96 9 0 Normal
05/10/2026 10 PM PDT 94.96 9 0 Normal
05/10/2026 11 PM PDT 94.96 9 0 Normal
05/11/2026 12 AM PDT 94.95 8 - Normal
05/11/2026 01 AM PDT 94.95 8 0 Normal
05/11/2026 02 AM PDT 94.95 8 0 Normal
05/11/2026 03 AM PDT 94.95 8 0 Normal
05/11/2026 04 AM PDT 94.95 8 0 Normal
05/11/2026 05 AM PDT 94.95 8 0 Normal
05/11/2026 06 AM PDT 94.95 8 0 Normal
05/11/2026 07 AM PDT 94.95 8 0 Normal
05/11/2026 08 AM PDT 94.95 8 0 Normal
05/11/2026 09 AM PDT 94.95 8 0 Normal
05/11/2026 10 AM PDT 94.95 8 0 Normal
05/11/2026 11 AM PDT 94.95 8 0 Normal
05/11/2026 12 PM PDT 94.95 8 0 Normal
05/11/2026 01 PM PDT 94.95 8 0 Normal
05/11/2026 02 PM PDT 94.95 8 0 Normal
05/11/2026 03 PM PDT 94.95 8 0 Normal
05/11/2026 04 PM PDT 94.95 8 0 Normal
05/11/2026 05 PM PDT 94.95 8 0 Normal
05/11/2026 06 PM PDT 94.95 8 0 Normal
05/11/2026 07 PM PDT 94.95 8 0 Normal
05/11/2026 08 PM PDT 94.95 8 0 Normal
05/11/2026 09 PM PDT 94.95 8 0 Normal
05/11/2026 10 PM PDT 94.95 8 0 Normal
05/11/2026 11 PM PDT 94.95 8 0 Normal
05/12/2026 12 AM PDT 94.95 8 0 Normal
05/12/2026 01 AM PDT 94.95 8 0 Normal
05/12/2026 02 AM PDT 94.95 8 0 Normal
05/12/2026 03 AM PDT 94.95 8 0 Normal
05/12/2026 04 AM PDT 94.95 8 0 Normal
05/12/2026 05 AM PDT 94.95 8 0 Normal
05/12/2026 06 AM PDT 94.95 8 0 Normal
05/12/2026 07 AM PDT 94.95 8 0 Normal
05/12/2026 08 AM PDT 94.95 8 0 Normal
05/12/2026 09 AM PDT 94.95 8 0 Normal
05/12/2026 10 AM PDT 94.95 8 0 Normal
05/12/2026 11 AM PDT 94.95 8 0 Normal
05/12/2026 12 PM PDT 94.95 8 0 Normal
05/12/2026 01 PM PDT 94.95 8 0 Normal
05/12/2026 02 PM PDT 94.95 8 0 Normal
05/12/2026 03 PM PDT 94.95 8 0 Normal
05/12/2026 04 PM PDT 94.95 8 0 Normal
05/12/2026 05 PM PDT 94.95 8 0 Normal
05/12/2026 06 PM PDT 94.95 8 0 Normal
05/12/2026 07 PM PDT 94.95 8 0 Normal
05/12/2026 08 PM PDT 94.95 8 0 Normal
05/12/2026 09 PM PDT 94.95 8 0 Normal
05/12/2026 10 PM PDT 94.95 8 0 Normal
05/12/2026 11 PM PDT 94.95 8 0 Normal
05/13/2026 12 AM PDT 94.95 8 0 Normal
05/13/2026 01 AM PDT 94.95 8 0 Normal
05/13/2026 02 AM PDT 94.94 8 - Normal
05/13/2026 03 AM PDT 94.94 8 0 Normal
05/13/2026 04 AM PDT 94.94 8 0 Normal
05/13/2026 05 AM PDT 94.94 8 0 Normal
05/13/2026 06 AM PDT 94.94 8 0 Normal
05/13/2026 07 AM PDT 94.94 8 0 Normal
05/13/2026 08 AM PDT 94.94 8 0 Normal
05/13/2026 09 AM PDT 94.94 8 0 Normal
05/13/2026 10 AM PDT 94.94 8 0 Normal
05/13/2026 11 AM PDT 94.94 8 0 Normal
05/13/2026 12 PM PDT 94.94 8 0 Normal
05/13/2026 01 PM PDT 94.94 8 0 Normal
05/13/2026 02 PM PDT 94.94 8 0 Normal
05/13/2026 03 PM PDT 94.94 8 0 Normal
05/13/2026 04 PM PDT 94.94 8 0 Normal
05/13/2026 05 PM PDT 94.94 8 0 Normal
05/13/2026 06 PM PDT 94.94 8 0 Normal
05/13/2026 07 PM PDT 94.94 8 0 Normal
05/13/2026 08 PM PDT 94.94 8 0 Normal
05/13/2026 09 PM PDT 94.94 8 0 Normal
05/13/2026 10 PM PDT 94.94 8 0 Normal
05/13/2026 11 PM PDT 94.94 8 0 Normal
05/14/2026 12 AM PDT 94.94 8 0 Normal
05/14/2026 01 AM PDT 94.94 8 0 Normal
05/14/2026 02 AM PDT 94.94 8 0 Normal
05/14/2026 03 AM PDT 94.94 8 0 Normal
05/14/2026 04 AM PDT 94.94 8 0 Normal
05/14/2026 05 AM PDT 94.94 8 0 Normal
05/14/2026 06 AM PDT 94.94 8 0 Normal
05/14/2026 07 AM PDT 94.94 8 0 Normal
05/14/2026 08 AM PDT 94.94 8 0 Normal
05/14/2026 09 AM PDT 94.94 8 0 Normal
05/14/2026 10 AM PDT 94.94 8 0 Normal
05/14/2026 11 AM PDT 94.94 8 0 Normal
05/14/2026 12 PM PDT 94.94 8 0 Normal
05/14/2026 01 PM PDT 94.94 8 0 Normal
05/14/2026 02 PM PDT 94.94 8 0 Normal
05/14/2026 03 PM PDT 94.94 8 0 Normal
05/14/2026 04 PM PDT 94.94 8 0 Normal
05/14/2026 05 PM PDT 94.94 8 0 Normal
05/14/2026 06 PM PDT 94.94 8 0 Normal
05/14/2026 07 PM PDT 94.94 8 0 Normal
05/14/2026 08 PM PDT 94.94 8 0 Normal
05/14/2026 09 PM PDT 94.94 8 0 Normal
05/14/2026 10 PM PDT 94.94 8 0 Normal
05/14/2026 11 PM PDT 94.94 8 0 Normal
05/15/2026 12 AM PDT 94.94 8 0 Normal
05/15/2026 01 AM PDT 94.94 8 0 Normal
05/15/2026 02 AM PDT 94.94 8 0 Normal
05/15/2026 03 AM PDT 94.94 8 0 Normal
05/15/2026 04 AM PDT 94.94 8 0 Normal
05/15/2026 05 AM PDT 94.94 8 0 Normal
#
# NOTE 1: Stages are rounded to the nearest hundredth (.01) of a foot.
# NOTE 2: Flows are rounded to the nearest (1) cfs.
# NOTE 3: Trends are determined using hourly change in unrounded stage and flow.
# NOTE 4: Maximum Values are determined using unrounded stage and flow.
|